Weather History for Gulkana, AK

Change the Weather History Date:

Sunday, June 8, 2014

  Actual Average Record
Temperature  
Mean Temperature 52 °F -  
Max Temperature 64 °F 62 °F 84 °F (1957)
Min Temperature 41 °F 40 °F 30 °F (2003)
Degree Days  
Heating Degree Days 12    
Growing Degree Days 2 (Base 50)    
Moisture  
Dew Point 39 °F    
Average Humidity 62    
Maximum Humidity 90    
Minimum Humidity 26    
Precipitation  
Precipitation 0.04 in - - ()
Sea Level Pressure  
Sea Level Pressure 29.69 in    
Wind  
Wind Speed 4 mph (SSW)    
Max Wind Speed 10 mph    
Max Gust Speed -    
Visibility 10 miles    
Events Rain    
Averages and records for this station are not official NWS values.
T = Trace of Precipitation, MM = Missing Value Source: NWS Daily Summary

Daily Weather History Graph

Daily Weather History Graph

Search for Another Location

Airport:

Trip Planner

Search our weather history database for the weather conditions in past years. The results will help you decide how hot, cold, wet, or windy it might be!

Date:

Astronomy

Jun. 08, 2014 Rise Set
Actual Time 3:55 AM AKDT 11:27 PM AKDT
Civil Twilight 2:13 AM AKDT 1:08 AM AKDT
Nautical Twilight Sun does not rise Sun does not rise
Astronomical Twilight Sun does not rise Sun does not rise
Moon 5:23 PM AKDT (6/8) 2:37 AM AKDT (6/8)
Length of Visible Light 22h 55m
Length of Day
19h 31m
Waxing Gibbous, 78% of the Moon is Illuminated
Jun 8
Waxing Gibbous
Jun 12
Full
Jun 19
Last Quarter
Jun 27
New
Jul 5
First Quarter

Hourly Weather History & Observations

Time (AKDT) Temp. Dew Point Humidity Pressure Visibility Wind Dir Wind Speed Gust Speed Precip Events Conditions
12:53 AM 50.0 °F 34.0 °F 54% 29.67 in 10.0 mi SSE 5.8 mph - N/A   Scattered Clouds
1:53 AM 48.0 °F 35.1 °F 61% 29.66 in 10.0 mi SSE 6.9 mph - N/A   Partly Cloudy
2:53 AM 46.9 °F 35.1 °F 63% 29.66 in 10.0 mi SSE 5.8 mph - N/A   Clear
3:53 AM 44.1 °F 35.1 °F 71% 29.67 in 10.0 mi Calm Calm - N/A   Mostly Cloudy
4:53 AM 41.0 °F 35.1 °F 79% 29.67 in 10.0 mi Calm Calm - N/A   Scattered Clouds
5:53 AM 44.1 °F 36.0 °F 73% 29.67 in 10.0 mi Calm Calm - N/A   Mostly Cloudy
6:53 AM 46.9 °F 39.0 °F 74% 29.66 in 10.0 mi Calm Calm - N/A   Partly Cloudy
7:53 AM 48.9 °F 37.9 °F 66% 29.67 in 10.0 mi SW 3.5 mph - N/A   Clear
8:53 AM 51.1 °F 39.0 °F 63% 29.68 in 10.0 mi Variable 3.5 mph - N/A   Clear
9:53 AM 55.0 °F 39.0 °F 55% 29.67 in 10.0 mi North 6.9 mph - N/A   Scattered Clouds
10:53 AM 55.0 °F 37.9 °F 53% 29.67 in 10.0 mi North 5.8 mph - N/A   Overcast
12:53 PM 57.9 °F 37.9 °F 47% 29.68 in 10.0 mi Calm Calm - N/A   Partly Cloudy
1:53 PM 57.9 °F 36.0 °F 44% 29.68 in 10.0 mi Calm Calm - N/A   Partly Cloudy
2:53 PM 62.1 °F 39.0 °F 43% 29.67 in 10.0 mi Variable 5.8 mph - N/A   Partly Cloudy
3:53 PM 63.0 °F 37.0 °F 38% 29.67 in 10.0 mi WNW 9.2 mph - N/A   Partly Cloudy
4:53 PM 63.0 °F 37.0 °F 38% 29.68 in 10.0 mi NW 9.2 mph - N/A   Mostly Cloudy
5:53 PM 61.0 °F 37.0 °F 41% 29.67 in 10.0 mi Calm Calm - N/A   Overcast
6:53 PM 53.1 °F 45.0 °F 74% 29.70 in 8.0 mi SSW 10.4 mph - 0.01 in Rain Light Rain
7:53 PM 52.0 °F 45.0 °F 77% 29.71 in 10.0 mi SSE 4.6 mph - 0.02 in Rain Light Rain
8:53 PM 53.1 °F 48.0 °F 83% 29.73 in 10.0 mi SSW 5.8 mph - 0.01 in   Overcast
9:53 PM 51.1 °F 46.0 °F 83% 29.74 in 10.0 mi SW 3.5 mph - N/A   Mostly Cloudy
10:53 PM 48.0 °F 44.1 °F 86% 29.76 in 10.0 mi SW 3.5 mph - N/A   Partly Cloudy
11:53 PM 45.0 °F 42.1 °F 90% 29.79 in 10.0 mi Calm Calm - N/A   Overcast